Content
SEND FEEDBACK

Daily
Averages
Monthly
Summary
Canada

MONTREAL, QUEBEC


Home > North America > Canada > Quebec
Elevation: 118 feet     Latitude: 45 28N     Longitude: 073 45W

WEATHER
 
SELECT A DAY
Number of Records: 203,273;   Date Range: 1/1/95 - 12/16/14
 
SHARE

PRINT THIS DATA

[ ← Previous Day ]
WEATHER ALMANAC - MARCH 15, 2013
[ Next Day → ]
[ °C ]   °F
Weather ElementAverageHighLow
Temperature22.9 °F28.4 °F (6:00 pm)15.8 °F (1:00 am)
Dewpoint14.8 °F23 °F (4:00 pm)4 °F (2:00 am)
Humidity70.9 %93 % (9:00 pm)46 % (2:00 am)
Barometer29.73 in29.94 in (1:00 am)29.60 in (5:20 pm)
Wind Speed6 mph10.4 mph (5:00 am)
Weather ElementAverage
Visibility13.9 mi
Wind DirectionSSW (210.8 °)

Weather ElementTotal
Precipitation---
Heating Degree Days42.9 (Base 65)
Averaged from 36 records on March 15, 2013
WEATHER CONDITIONS BREAKOUT
WIND DIRECTION BREAKOUT
WEATHER BY HOUR - MARCH 15, 2013
[ °C ]   °F
Local TimeTemperatureDewpointHumidityBarometerVisibilityWind DirectionWind SpeedGust SpeedPrecipitationEventsConditions
1:00 AM15.8 °F5.0 °F62 %29.94 in15.0 miWest (270°)6.9 mphPartly Cloudy
2:00 AM16.0 °F4.0 °F46 %29.94 in15.0 miWest (270°)9.2 mph
2:00 AM15.8 °F5.0 °F62 %29.94 in15.0 miWest (270°)8.1 mphClear
3:00 AM15.8 °F5.0 °F62 %29.93 in15.0 miWSW (250°)9.2 mphScattered Clouds
4:00 AM15.8 °F6.8 °F68 %29.92 in15.0 miWest (260°)8.1 mphPartly Cloudy
5:00 AM15.8 °F5.0 °F62 %29.90 in15.0 miWSW (250°)10.4 mphMostly Cloudy
6:00 AM15.8 °F5.0 °F62 %29.88 in15.0 miWSW (250°)8.1 mphMostly Cloudy
7:00 AM15.8 °F6.8 °F68 %29.87 in30.0 miWSW (240°)6.9 mphMostly Cloudy
8:00 AM17.6 °F8.6 °F68 %29.84 in30.0 miWSW (240°)6.9 mphMostly Cloudy
8:00 AM17.0 °F8.0 °F54 %29.84 in28.0 miWSW (240°)6.9 mphPartly Cloudy
9:00 AM19.4 °F10.4 °F68 %29.82 in30.0 miSW (230°)6.9 mphMostly Cloudy
10:00 AM21.2 °F8.6 °F58 %29.78 in30.0 miSSW (210°)8.1 mphOvercast
11:00 AM24.8 °F6.8 °F46 %29.74 in30.0 miSouth (190°)6.9 mphMostly Cloudy
12:00 PM26.6 °F8.6 °F47 %29.71 in15.0 miSSW (200°)5.8 mphOvercast
12:48 PM26.6 °F10.4 °F51 %29.68 in10.0 miSouth (190°)8.1 mphSnowLight Snow
1:00 PM26.6 °F12.2 °F55 %29.67 in10.0 miSSW (200°)6.9 mphSnowLight Snow
2:00 PM26.0 °F14.0 °F47 %29.64 in7.0 miSW (220°)2.3 mphSnowLight Snow
2:00 PM26.6 °F14.0 °F59 %29.64 in8.0 miSSW (210°)3.5 mphSnowLight Snow
2:32 PM26.6 °F17.6 °F69 %29.62 in4.0 miSSW (210°)4.6 mphSnowLight Snow
2:48 PM24.8 °F19.4 °F80 %29.62 in1.5 miSouth (190°)6.9 mphSnowLight Snow
3:00 PM26.6 °F21.2 °F80 %29.62 in1.2 miSSE (160°)6.9 mphSnowLight Snow
3:16 PM24.8 °F21.2 °F86 %29.61 in1.5 miSE (130°)4.6 mphSnowLight Snow
4:00 PM26.6 °F23.0 °F86 %29.62 in1.5 miCalmSnowLight Snow
4:11 PM26.6 °F23.0 °F86 %29.61 in3.0 miSE (130°)3.5 mphSnowLight Snow
4:46 PM26.6 °F23.0 °F86 %29.61 in5.0 miSouth (170°)2.3 mphSnowLight Snow
5:00 PM26.6 °F23.0 °F86 %29.61 in6.0 miCalmSnowLight Snow
5:20 PM26.6 °F23.0 °F86 %29.60 in15.0 miCalmSnowLight Snow
6:00 PM28.4 °F23.0 °F80 %29.61 in15.0 miWest (280°)5.8 mphMostly Cloudy
7:00 PM26.6 °F21.2 °F80 %29.64 in15.0 miWest (270°)6.9 mphScattered Clouds
8:00 PM25.0 °F21.0 °F77 %29.67 in15.0 miWest (270°)4.6 mphPartly Cloudy
8:00 PM24.8 °F21.2 °F86 %29.67 in15.0 miWest (260°)4.6 mphMostly Cloudy
8:39 PM26.6 °F21.2 °F80 %29.68 in10.0 miWest (260°)9.2 mphSnowLight Snow
9:00 PM24.8 °F23.0 °F93 %29.68 in15.0 miWest (270°)5.8 mphSnowLight Snow
9:12 PM24.8 °F23.0 °F93 %29.69 in15.0 miWest (260°)6.9 mphScattered Clouds
10:00 PM23.0 °F21.2 °F93 %29.70 in15.0 miWSW (250°)5.8 mphPartly Cloudy
11:00 PM24.8 °F19.4 °F80 %29.73 in15.0 miWNW (290°)6.9 mphPartly Cloudy
Hourly data recorded from CYUL, located miles away from Montreal, Quebec







STORIES FROM OUR PARTNERS